Location: Lecco
(45.8566°N, 9.3977°E)
Time: 04:40:34
(UTC+02:00)

Transit 4A - Pass Details

Date: 20 August 2020
Orbit: 863 x 982 km, 66.8° (Epoch: 23 September)

Event Time Altitude Azimuth Distance (km) Brightness Sun altitude
Rises 17:58:20 0° 321° (NW) 3,670 11.4 23.8°
Reaches altitude 10° 18:01:04 10° 313° (NW) 2,729 11.0 23.4°
Maximum altitude 18:06:49 36° 249° (WSW) 1,495 10.7 22.4°
Drops below altitude 10° 18:12:34 10° 185° (S) 2,724 10.5 21.4°
Sets 18:15:18 0° 177° (S) 3,662 11.0 20.9°
